Theta_e
310 313 315 316 316 315 316 316 316 316 316 317 317 318 319 317 317 319 319 317 317 316 317 317 317 318 318 319 318 319 319 320 322 324 332 345 345 337 341 342 342 338 343 341
312 315 316 316 315 316 316 317 317 316 315 316 318 318 318 319 318 318 317 317 318 319 319 318 318 319 319 319 318 318 319 320 321 324 331 343 344 340 342 344 342 341 342 343
315 316 315 315 315 317 316 317 317 317 316 316 317 318 318 318 316 316 317 320 321 321 321 320 319 319 319 319 318 319 319 320 322 325 330 340 344 342 344 344 341 342 344 343
316 314 315 316 316 316 317 316 317 317 318 318 315 318 318 318 319 317 322 321 320 320 321 322 322 321 319 319 319 319 319 321 323 328 331 338 344 343 342 342 339 339 338 327
315 315 315 316 316 316 317 316 317 317 318 317 316 318 319 315 318 322 321 320 321 321 323 323 322 322 321 321 320 320 320 321 324 332 342 343 343 341 340 340 338 326 324 323
316 315 317 317 316 316 316 316 315 315 316 319 319 319 319 318 320 324 320 319 319 320 322 325 325 325 323 321 321 319 319 327 335 341 341 336 332 332 330 325 323 320 318 317
316 317 316 316 319 319 316 318 318 319 319 319 316 317 319 318 321 320 320 319 319 319 320 321 322 326 328 327 328 331 333 333 330 327 326 326 324 322 320 319 318 317 317 316
317 317 319 319 318 319 320 319 319 318 318 318 318 320 322 321 319 319 320 321 322 322 321 320 318 320 321 321 322 324 325 324 323 321 320 319 319 318 318 317 317 317 316 316
319 320 319 319 319 320 320 320 317 320 320 321 320 320 323 322 322 320 318 317 318 319 319 320 321 318 318 318 317 318 319 318 318 317 317 317 317 316 316 316 316 317 317 317
319 322 320 319 318 318 321 319 324 323 325 323 322 322 321 325 323 319 318 316 316 316 317 318 318 320 321 318 318 318 319 320 320 319 318 319 319 318 317 317 316 317 317 319
319 320 321 319 319 321 321 322 321 322 323 324 322 321 320 325 322 320 318 315 315 315 316 317 316 318 320 320 319 319 319 318 318 318 318 318 318 319 318 316 316 317 319 319
318 320 322 319 315 315 316 319 322 326 324 325 325 325 321 322 319 317 315 314 315 316 316 315 315 315 315 315 314 314 313 312 312 312 311 312 312 312 313 313 315 316 316 318
319 320 320 318 317 316 318 318 318 319 320 325 325 321 320 319 320 317 315 314 314 315 314 312 312 311 311 310 310 310 310 310 310 310 310 310 310 311 311 311 311 311 311 312
316 316 320 322 314 318 318 317 317 318 321 318 320 318 317 318 319 317 314 314 313 312 311 311 311 310 310 310 310 310 310 309 309 308 307 307 307 306 306 306 306 305 305 305
317 319 316 314 314 315 314 314 315 316 316 316 315 314 314 314 315 314 313 313 312 311 311 311 310 310 310 309 309 308 308 307 306 306 305 305 304 304 303 303 302 302 302 302
313 317 315 316 314 314 315 314 314 314 314 314 314 315 314 314 313 313 313 312 312 311 311 310 310 309 309 308 308 307 306 305 305 304 304 303 303 303 302 302 301 302 302 303
317 318 318 316 314 313 313 313 313 313 313 314 315 315 315 316 315 314 313 312 312 312 310 310 309 309 308 307 307 306 305 305 304 304 304 303 303 303 302 303 304 304 305 305
316 317 316 314 314 315 312 312 312 314 314 314 314 315 317 316 315 313 313 312 312 311 310 309 309 308 308 307 306 305 305 304 303 303 303 302 302 302 303 303 304 303 303 301
313 316 317 317 315 314 313 317 317 317 317 317 318 318 316 315 312 314 312 311 311 310 309 308 308 307 306 305 304 303 303 303 302 301 301 301 301 302 302 301 300 300 299 299
312 314 316 313 317 316 314 316 316 315 316 316 316 316 315 313 316 315 311 310 309 309 308 307 306 305 305 304 303 302 302 301 301 300 300 300 300 299 298 299 299 298 297 297
315 315 317 315 317 316 314 314 315 316 316 314 314 314 314 315 314 311 310 309 308 307 307 305 305 304 303 303 301 301 300 299 299 298 298 298 297 298 297 296 297 296 296 296
315 316 316 316 315 315 313 314 316 315 313 313 313 313 312 311 310 310 309 308 307 306 305 304 303 303 302 301 299 298 298 298 297 296 296 296 297 297 295 296 297 297 295 295
317 316 317 316 315 313 313 314 312 312 311 311 312 312 311 310 309 308 307 306 305 305 304 303 302 301 300 298 297 297 297 295 295 294 296 296 296 296 297 296 297 297 296 295
312 311 315 314 313 312 312 311 311 311 311 312 311 310 309 308 307 306 306 305 304 304 302 301 300 299 298 297 296 295 294 294 293 294 294 294 296 297 298 298 297 297 298 297
309 311 313 313 310 308 308 309 309 310 310 309 308 307 306 305 305 304 304 303 303 302 300 299 297 297 296 295 293 292 292 293 293 292 293 295 296 298 300 301 301 301 302 298
306 308 310 309 307 308 309 309 309 310 308 307 306 305 304 303 303 303 303 302 301 299 298 297 296 295 294 293 292 293 292 292 291 293 294 296 297 299 300 301 306 306 305 303
Wind_Speed
11 9 16 19 11 5 7 5 9 4 4 1 6 5 7 2 6 6 6 10 14 12 15 17 15 15 16 20 25 25 22 19 20 23 22 25 28 29 26 22 18 18 18 18
9 12 9 9 7 4 4 4 5 2 3 5 3 6 7 6 5 3 7 10 12 13 9 6 6 8 13 15 21 26 25 23 21 26 25 27 29 31 26 22 20 21 19 19
13 5 10 7 6 7 4 7 5 6 1 3 1 4 4 2 2 1 5 7 9 13 14 14 12 7 7 9 15 21 25 26 27 30 30 29 31 27 26 26 23 21 20 16
7 5 12 8 8 7 6 10 10 8 3 5 1 3 2 3 4 1 9 13 15 15 13 12 14 13 13 15 16 20 24 30 33 34 34 33 30 29 27 21 21 21 15 11
5 9 10 7 9 10 5 5 9 5 7 4 4 4 3 2 5 4 11 13 13 13 14 14 13 11 11 15 20 23 25 28 32 31 27 27 26 24 20 18 14 10 8 9
5 2 3 3 6 10 10 5 4 3 3 6 5 6 4 4 1 1 7 10 12 14 16 18 18 16 13 12 9 9 12 14 14 16 15 12 8 9 10 9 9 9 9 7
3 2 1 2 5 3 4 5 3 5 5 5 2 4 3 2 2 5 8 12 15 16 17 17 20 21 22 20 19 15 9 9 10 10 10 8 6 5 4 5 7 8 9 12
9 6 2 2 4 5 4 4 4 5 4 2 2 5 3 5 10 10 9 9 11 13 15 17 19 16 16 17 17 17 15 15 13 10 8 5 4 4 6 9 12 15 18 19
7 5 1 4 2 2 5 5 2 4 2 3 4 2 5 8 8 9 10 13 12 11 12 10 10 13 13 14 15 15 13 11 8 6 5 6 9 11 13 15 18 20 21 21
5 5 2 2 1 11 0 8 3 1 4 7 5 5 6 13 12 6 7 12 14 13 11 10 9 5 3 3 3 5 8 8 9 10 11 13 17 17 19 22 25 25 25 26
4 2 3 3 4 3 4 4 3 1 2 4 5 4 1 12 10 4 4 11 14 14 12 9 10 7 6 8 10 10 11 10 9 11 13 16 19 22 24 24 25 27 28 29
2 3 4 3 4 4 1 2 4 4 5 3 2 5 3 8 5 1 7 13 15 11 9 6 6 4 3 3 4 6 8 9 11 13 14 15 15 16 18 20 22 25 27 28
6 2 5 4 3 2 1 2 3 6 2 7 5 3 2 6 7 5 11 14 12 10 7 6 6 7 7 8 10 12 15 17 19 21 23 24 25 26 27 29 31 32 34 35
5 3 2 5 4 3 4 6 6 4 3 4 10 11 7 8 11 18 22 13 6 5 6 6 7 8 11 15 19 21 24 25 27 29 30 31 33 34 35 37 38 39 40 42
2 3 2 4 5 3 3 6 9 11 11 8 9 10 13 15 16 19 17 11 3 1 3 5 8 12 16 20 24 25 28 29 31 33 35 36 37 38 39 40 41 43 44 46
2 3 2 2 2 3 8 11 12 14 14 16 16 18 15 18 13 14 6 3 4 5 6 8 12 16 19 25 28 30 31 32 34 36 37 37 38 38 38 40 41 42 44 43
2 5 3 1 2 4 10 11 14 8 9 9 10 8 8 8 5 5 4 6 10 10 9 12 16 18 21 27 32 32 35 37 37 35 34 34 34 35 37 35 35 35 36 36
7 5 2 2 2 4 3 2 2 7 8 11 12 9 8 6 5 6 7 8 10 10 11 16 20 23 26 30 33 34 36 36 36 36 35 34 32 32 32 31 31 33 35 38
1 5 3 3 5 7 3 1 3 5 5 5 11 7 5 4 6 12 6 9 8 11 17 19 22 26 32 32 35 37 38 35 35 36 34 33 31 32 30 33 36 37 37 36
5 3 3 2 3 4 2 3 2 4 7 7 2 2 4 4 8 6 8 9 12 16 18 21 27 28 28 29 34 35 35 33 34 34 35 32 30 33 36 42 40 36 38 44
5 2 7 5 4 5 2 3 4 4 2 6 5 9 10 8 11 14 15 15 15 19 21 24 26 26 27 28 30 33 34 34 33 34 32 32 37 41 38 39 36 37 37 36
6 7 5 6 5 5 4 5 4 4 6 8 9 9 9 13 15 16 14 17 19 22 24 25 26 27 28 28 30 33 33 32 33 34 35 42 40 37 36 35 36 35 34 35
4 2 3 6 1 2 2 1 6 7 13 16 12 12 12 15 15 14 17 20 22 24 26 25 27 31 31 29 29 33 33 33 35 36 41 39 39 36 35 34 34 33 32 33
3 3 2 2 2 3 7 9 9 11 12 10 10 12 10 11 13 18 22 23 25 26 25 27 30 32 33 30 29 31 35 34 36 39 38 38 37 35 31 31 31 31 31 31
1 5 4 3 6 8 5 6 9 9 8 10 8 6 8 13 19 21 23 25 25 25 28 28 31 32 33 32 33 33 32 35 36 37 37 36 33 32 31 30 29 29 29 27
5 3 3 1 1 3 8 9 9 8 5 6 9 13 15 17 21 22 24 23 25 27 30 30 30 32 32 33 36 35 33 32 34 35 34 32 31 30 29 29 28 27 29 25
Wind_Direction
174 186 197 194 194 194 174 189 198 184 158 235 202 253 269 263 246 255 287 323 339 310 264 250 259 266 262 259 238 232 236 236 235 247 243 229 231 231 231 232 235 236 233 239
157 201 195 166 172 158 164 203 231 259 249 210 231 248 281 283 270 293 334 345 347 344 348 320 308 294 275 265 229 229 236 230 234 235 235 227 226 231 231 235 238 231 235 242
171 189 160 157 157 176 192 220 234 247 74 222 244 240 229 227 258 159 16 2 3 355 342 325 317 305 291 273 257 248 239 234 232 234 232 228 229 233 234 236 238 235 235 239
180 125 161 158 180 183 210 217 231 237 202 251 288 265 239 232 254 126 19 8 2 1 356 341 323 304 283 265 257 246 245 239 232 230 233 231 228 232 237 245 248 235 236 233
153 173 162 180 198 183 221 172 210 226 197 186 172 241 207 269 218 44 13 9 18 20 18 14 6 345 316 286 270 257 246 244 241 236 234 229 232 241 248 241 219 211 230 256
136 185 173 153 148 184 147 127 93 108 156 233 194 228 192 174 175 54 30 35 35 41 49 51 48 43 36 27 359 308 263 250 240 226 221 222 213 206 191 187 211 232 250 265
159 179 38 162 157 147 165 166 189 215 217 250 76 231 277 131 63 104 84 63 57 55 52 50 56 60 66 68 70 72 76 124 126 128 132 137 147 162 195 236 256 258 273 290
188 186 214 134 215 195 187 209 211 220 220 237 158 235 121 112 120 114 95 74 55 45 41 43 40 47 61 70 78 88 97 106 114 123 135 155 195 251 273 284 286 286 284 284
170 167 77 63 131 206 153 198 59 123 74 249 241 177 135 152 130 115 77 50 28 17 13 14 26 31 47 54 53 49 44 38 33 18 355 322 306 294 288 282 278 274 275 277
164 140 86 123 242 51 352 133 155 147 220 243 214 250 250 184 169 144 75 28 9 1 352 355 350 342 313 296 303 304 302 302 304 293 286 289 287 280 276 275 274 269 264 262
132 171 136 210 22 149 147 163 73 95 237 249 265 239 317 189 169 145 24 357 349 343 336 328 318 310 283 276 279 286 283 286 280 273 272 273 271 269 271 273 273 270 270 267
82 112 126 94 7 267 38 150 180 208 200 225 284 266 349 173 156 318 334 344 345 340 333 327 332 346 346 343 340 336 327 321 314 307 303 298 293 287 280 282 279 275 275 271
171 105 143 157 164 98 152 117 108 99 72 219 238 233 130 218 258 286 330 344 358 19 42 44 46 36 17 2 348 337 329 322 316 311 307 302 298 293 288 283 279 276 274 271
97 103 204 243 84 130 172 168 160 150 186 238 234 265 267 274 281 301 319 333 339 28 33 26 26 11 352 342 336 330 324 320 316 311 306 301 297 295 292 289 286 283 280 277
69 112 116 112 123 163 219 221 214 233 244 241 277 269 279 284 288 293 307 299 224 289 353 352 346 341 336 332 329 324 319 316 313 309 306 304 302 300 297 294 291 288 285 282
24 111 110 116 143 238 267 254 245 243 250 254 264 277 281 288 286 292 294 240 262 290 305 314 325 328 328 328 325 321 318 315 313 310 307 305 303 301 298 295 293 290 287 284
99 138 132 214 55 335 277 265 232 233 232 249 258 266 290 283 255 263 273 271 283 287 299 315 321 323 322 322 321 318 314 312 311 308 305 303 301 298 296 293 290 287 285 285
132 120 101 134 156 237 62 177 336 224 253 225 256 257 258 262 247 264 279 285 288 279 305 315 318 318 318 317 316 313 310 309 307 305 303 302 299 295 294 291 287 286 285 284
66 129 129 204 209 317 258 110 173 208 276 270 248 274 242 253 287 273 285 308 299 299 308 310 313 313 314 313 311 310 308 307 305 304 303 302 298 295 292 290 292 291 288 285
101 61 170 156 225 245 111 127 144 172 258 18 259 274 266 255 273 302 315 299 296 302 306 310 311 312 309 308 309 309 307 306 304 304 303 301 296 294 292 296 299 295 285 287
158 149 209 200 245 270 187 171 176 243 27 338 325 315 306 286 298 302 303 297 299 305 309 311 310 307 308 310 309 306 306 304 304 303 301 297 298 303 300 301 297 292 293 289
164 164 186 200 222 248 156 160 234 19 324 300 309 303 296 300 302 302 302 303 308 309 311 312 309 308 310 309 309 306 304 307 305 303 300 304 306 306 302 302 300 299 295 292
187 208 183 203 223 112 178 18 303 314 310 298 295 297 296 300 301 302 305 310 311 312 311 312 311 310 311 311 310 306 305 308 308 303 305 307 310 309 306 304 304 301 299 294
169 170 222 208 126 244 256 289 281 301 308 294 300 300 299 297 305 309 311 312 313 313 312 313 312 311 310 312 309 305 310 311 308 308 310 311 310 311 308 305 304 301 297 294
38 173 187 251 289 302 316 315 317 309 314 308 317 325 322 318 314 313 312 313 312 312 313 313 312 311 310 312 312 313 313 313 312 312 311 312 313 312 311 310 307 303 300 294
192 185 202 210 43 289 304 322 317 315 352 2 342 329 324 321 315 314 312 311 311 313 314 313 312 311 313 313 317 318 318 316 313 311 313 315 315 314 314 313 311 310 312 309